<?xml version="1.0" encoding="UTF-8"?>
<gpx
version="1.1"
creator="Kashmir3D 9.350 - http://www.kashmir3d.com"
xmlns:xsi="http://www.w3.org/2001/XMLSchema-instance"
xmlns="http://www.topografix.com/GPX/1/1"
xmlns:kashmir3d="http://www.kashmir3d.com/namespace/kashmir3d"
xsi:schemaLocation="http://www.topografix.com/GPX/1/1 http://www.topografix.com/GPX/1/1/gpx.xsd
	http://www.kashmir3d.com/namespace/kashmir3d http://www.kashmir3d.com/namespace/kashmir3d.xsd">
<trk>
 <name>RYUGATAKE.KML(竜ヶ岳)</name>
 <number>1</number>
 <extensions>
 <kashmir3d:line_color>0000ff</kashmir3d:line_color>
 <kashmir3d:line_size>3</kashmir3d:line_size>
 <kashmir3d:line_style>1</kashmir3d:line_style>
 <kashmir3d:icon>901001</kashmir3d:icon>
 </extensions>
<trkseg>
<trkpt lat="35.108260" lon="136.441391">
 <ele>686</ele>
 <time>2020-03-24T14:23:37Z</time>
</trkpt>
<trkpt lat="35.108286" lon="136.441348">
 <ele>685</ele>
 <time>2020-03-24T14:23:37Z</time>
</trkpt>
<trkpt lat="35.108329" lon="136.441284">
 <ele>687</ele>
 <time>2020-03-24T14:23:37Z</time>
</trkpt>
<trkpt lat="35.108406" lon="136.441209">
 <ele>688</ele>
 <time>2020-03-24T14:23:37Z</time>
</trkpt>
<trkpt lat="35.108457" lon="136.441209">
 <ele>688</ele>
 <time>2020-03-24T14:23:37Z</time>
</trkpt>
<trkpt lat="35.108509" lon="136.441284">
 <ele>694</ele>
 <time>2020-03-24T14:23:37Z</time>
</trkpt>
<trkpt lat="35.108595" lon="136.441348">
 <ele>697</ele>
 <time>2020-03-24T14:23:38Z</time>
</trkpt>
<trkpt lat="35.108663" lon="136.441380">
 <ele>702</ele>
 <time>2020-03-24T14:23:38Z</time>
</trkpt>
<trkpt lat="35.108775" lon="136.441466">
 <ele>711</ele>
 <time>2020-03-24T14:23:38Z</time>
</trkpt>
<trkpt lat="35.108844" lon="136.441563">
 <ele>716</ele>
 <time>2020-03-24T14:23:38Z</time>
</trkpt>
<trkpt lat="35.108998" lon="136.441595">
 <ele>719</ele>
 <time>2020-03-24T14:23:38Z</time>
</trkpt>
<trkpt lat="35.109092" lon="136.441573">
 <ele>719</ele>
 <time>2020-03-24T14:23:38Z</time>
</trkpt>
<trkpt lat="35.109213" lon="136.441627">
 <ele>721</ele>
 <time>2020-03-24T14:23:39Z</time>
</trkpt>
<trkpt lat="35.109333" lon="136.441734">
 <ele>730</ele>
 <time>2020-03-24T14:23:39Z</time>
</trkpt>
<trkpt lat="35.109427" lon="136.441756">
 <ele>731</ele>
 <time>2020-03-24T14:23:39Z</time>
</trkpt>
<trkpt lat="35.109513" lon="136.441809">
 <ele>734</ele>
 <time>2020-03-24T14:23:39Z</time>
</trkpt>
<trkpt lat="35.109573" lon="136.441863">
 <ele>735</ele>
 <time>2020-03-24T14:23:39Z</time>
</trkpt>
<trkpt lat="35.109616" lon="136.441895">
 <ele>742</ele>
 <time>2020-03-24T14:23:39Z</time>
</trkpt>
<trkpt lat="35.109625" lon="136.441970">
 <ele>743</ele>
 <time>2020-03-24T14:23:40Z</time>
</trkpt>
<trkpt lat="35.109685" lon="136.441970">
 <ele>747</ele>
 <time>2020-03-24T14:23:40Z</time>
</trkpt>
<trkpt lat="35.109728" lon="136.441927">
 <ele>745</ele>
 <time>2020-03-24T14:23:40Z</time>
</trkpt>
<trkpt lat="35.109813" lon="136.441917">
 <ele>758</ele>
 <time>2020-03-24T14:23:40Z</time>
</trkpt>
<trkpt lat="35.109891" lon="136.441895">
 <ele>761</ele>
 <time>2020-03-24T14:23:40Z</time>
</trkpt>
<trkpt lat="35.109985" lon="136.441992">
 <ele>766</ele>
 <time>2020-03-24T14:23:40Z</time>
</trkpt>
<trkpt lat="35.110054" lon="136.442099">
 <ele>771</ele>
 <time>2020-03-24T14:23:40Z</time>
</trkpt>
<trkpt lat="35.110131" lon="136.442185">
 <ele>775</ele>
 <time>2020-03-24T14:23:41Z</time>
</trkpt>
<trkpt lat="35.110183" lon="136.442292">
 <ele>780</ele>
 <time>2020-03-24T14:23:41Z</time>
</trkpt>
<trkpt lat="35.110217" lon="136.442367">
 <ele>782</ele>
 <time>2020-03-24T14:23:41Z</time>
</trkpt>
<trkpt lat="35.110268" lon="136.442442">
 <ele>783</ele>
 <time>2020-03-24T14:23:41Z</time>
</trkpt>
<trkpt lat="35.110354" lon="136.442464">
 <ele>785</ele>
 <time>2020-03-24T14:23:41Z</time>
</trkpt>
<trkpt lat="35.110423" lon="136.442464">
 <ele>787</ele>
 <time>2020-03-24T14:23:41Z</time>
</trkpt>
<trkpt lat="35.110534" lon="136.442432">
 <ele>789</ele>
 <time>2020-03-24T14:23:42Z</time>
</trkpt>
<trkpt lat="35.110655" lon="136.442399">
 <ele>792</ele>
 <time>2020-03-24T14:23:42Z</time>
</trkpt>
<trkpt lat="35.110758" lon="136.442357">
 <ele>792</ele>
 <time>2020-03-24T14:23:42Z</time>
</trkpt>
<trkpt lat="35.110826" lon="136.442249">
 <ele>791</ele>
 <time>2020-03-24T14:23:42Z</time>
</trkpt>
<trkpt lat="35.110938" lon="136.442206">
 <ele>793</ele>
 <time>2020-03-24T14:23:42Z</time>
</trkpt>
<trkpt lat="35.110998" lon="136.442131">
 <ele>796</ele>
 <time>2020-03-24T14:23:42Z</time>
</trkpt>
<trkpt lat="35.111049" lon="136.442078">
 <ele>793</ele>
 <time>2020-03-24T14:23:43Z</time>
</trkpt>
<trkpt lat="35.111161" lon="136.442045">
 <ele>799</ele>
 <time>2020-03-24T14:23:43Z</time>
</trkpt>
<trkpt lat="35.111221" lon="136.441949">
 <ele>800</ele>
 <time>2020-03-24T14:23:43Z</time>
</trkpt>
<trkpt lat="35.111281" lon="136.441906">
 <ele>804</ele>
 <time>2020-03-24T14:23:43Z</time>
</trkpt>
<trkpt lat="35.111384" lon="136.441874">
 <ele>808</ele>
 <time>2020-03-24T14:23:43Z</time>
</trkpt>
<trkpt lat="35.111427" lon="136.441831">
 <ele>810</ele>
 <time>2020-03-24T14:23:43Z</time>
</trkpt>
<trkpt lat="35.111453" lon="136.441745">
 <ele>810</ele>
 <time>2020-03-24T14:23:44Z</time>
</trkpt>
<trkpt lat="35.111479" lon="136.441648">
 <ele>810</ele>
 <time>2020-03-24T14:23:44Z</time>
</trkpt>
<trkpt lat="35.111479" lon="136.441552">
 <ele>810</ele>
 <time>2020-03-24T14:23:44Z</time>
</trkpt>
<trkpt lat="35.111530" lon="136.441466">
 <ele>813</ele>
 <time>2020-03-24T14:23:44Z</time>
</trkpt>
<trkpt lat="35.111590" lon="136.441423">
 <ele>815</ele>
 <time>2020-03-24T14:23:44Z</time>
</trkpt>
<trkpt lat="35.111633" lon="136.441380">
 <ele>816</ele>
 <time>2020-03-24T14:23:44Z</time>
</trkpt>
<trkpt lat="35.111685" lon="136.441337">
 <ele>815</ele>
 <time>2020-03-24T14:23:44Z</time>
</trkpt>
<trkpt lat="35.111745" lon="136.441380">
 <ele>817</ele>
 <time>2020-03-24T14:23:45Z</time>
</trkpt>
<trkpt lat="35.111805" lon="136.441402">
 <ele>818</ele>
 <time>2020-03-24T14:23:45Z</time>
</trkpt>
<trkpt lat="35.111856" lon="136.441445">
 <ele>820</ele>
 <time>2020-03-24T14:23:45Z</time>
</trkpt>
<trkpt lat="35.111933" lon="136.441445">
 <ele>821</ele>
 <time>2020-03-24T14:23:45Z</time>
</trkpt>
<trkpt lat="35.111976" lon="136.441412">
 <ele>821</ele>
 <time>2020-03-24T14:23:45Z</time>
</trkpt>
<trkpt lat="35.112011" lon="136.441316">
 <ele>820</ele>
 <time>2020-03-24T14:23:45Z</time>
</trkpt>
<trkpt lat="35.112079" lon="136.441262">
 <ele>817</ele>
 <time>2020-03-24T14:23:46Z</time>
</trkpt>
<trkpt lat="35.112157" lon="136.441230">
 <ele>818</ele>
 <time>2020-03-24T14:23:46Z</time>
</trkpt>
<trkpt lat="35.112260" lon="136.441219">
 <ele>822</ele>
 <time>2020-03-24T14:23:46Z</time>
</trkpt>
<trkpt lat="35.112354" lon="136.441241">
 <ele>823</ele>
 <time>2020-03-24T14:23:46Z</time>
</trkpt>
<trkpt lat="35.112440" lon="136.441251">
 <ele>823</ele>
 <time>2020-03-24T14:23:46Z</time>
</trkpt>
<trkpt lat="35.112534" lon="136.441251">
 <ele>824</ele>
 <time>2020-03-24T14:23:46Z</time>
</trkpt>
<trkpt lat="35.112629" lon="136.441284">
 <ele>829</ele>
 <time>2020-03-24T14:23:46Z</time>
</trkpt>
<trkpt lat="35.112706" lon="136.441284">
 <ele>831</ele>
 <time>2020-03-24T14:23:47Z</time>
</trkpt>
<trkpt lat="35.112826" lon="136.441241">
 <ele>834</ele>
 <time>2020-03-24T14:23:47Z</time>
</trkpt>
<trkpt lat="35.112963" lon="136.441327">
 <ele>840</ele>
 <time>2020-03-24T14:23:47Z</time>
</trkpt>
<trkpt lat="35.113058" lon="136.441402">
 <ele>845</ele>
 <time>2020-03-24T14:23:47Z</time>
</trkpt>
<trkpt lat="35.113178" lon="136.441423">
 <ele>853</ele>
 <time>2020-03-24T14:23:47Z</time>
</trkpt>
<trkpt lat="35.113272" lon="136.441391">
 <ele>857</ele>
 <time>2020-03-24T14:23:47Z</time>
</trkpt>
<trkpt lat="35.113393" lon="136.441337">
 <ele>864</ele>
 <time>2020-03-24T14:23:48Z</time>
</trkpt>
<trkpt lat="35.113478" lon="136.441305">
 <ele>870</ele>
 <time>2020-03-24T14:23:48Z</time>
</trkpt>
<trkpt lat="35.113573" lon="136.441273">
 <ele>872</ele>
 <time>2020-03-24T14:23:48Z</time>
</trkpt>
<trkpt lat="35.113633" lon="136.441262">
 <ele>874</ele>
 <time>2020-03-24T14:23:48Z</time>
</trkpt>
<trkpt lat="35.113702" lon="136.441155">
 <ele>875</ele>
 <time>2020-03-24T14:23:48Z</time>
</trkpt>
<trkpt lat="35.113822" lon="136.441080">
 <ele>879</ele>
 <time>2020-03-24T14:23:48Z</time>
</trkpt>
<trkpt lat="35.113899" lon="136.441037">
 <ele>884</ele>
 <time>2020-03-24T14:23:48Z</time>
</trkpt>
<trkpt lat="35.114011" lon="136.441015">
 <ele>889</ele>
 <time>2020-03-24T14:23:49Z</time>
</trkpt>
<trkpt lat="35.114096" lon="136.440908">
 <ele>895</ele>
 <time>2020-03-24T14:23:49Z</time>
</trkpt>
<trkpt lat="35.114174" lon="136.440822">
 <ele>900</ele>
 <time>2020-03-24T14:23:49Z</time>
</trkpt>
<trkpt lat="35.114277" lon="136.440737">
 <ele>907</ele>
 <time>2020-03-24T14:23:49Z</time>
</trkpt>
<trkpt lat="35.114388" lon="136.440683">
 <ele>916</ele>
 <time>2020-03-24T14:23:49Z</time>
</trkpt>
<trkpt lat="35.114465" lon="136.440618">
 <ele>921</ele>
 <time>2020-03-24T14:23:49Z</time>
</trkpt>
<trkpt lat="35.114465" lon="136.440522">
 <ele>922</ele>
 <time>2020-03-24T14:23:50Z</time>
</trkpt>
<trkpt lat="35.114440" lon="136.440425">
 <ele>922</ele>
 <time>2020-03-24T14:23:50Z</time>
</trkpt>
<trkpt lat="35.114405" lon="136.440286">
 <ele>918</ele>
 <time>2020-03-24T14:23:50Z</time>
</trkpt>
<trkpt lat="35.114397" lon="136.440189">
 <ele>920</ele>
 <time>2020-03-24T14:23:50Z</time>
</trkpt>
<trkpt lat="35.114397" lon="136.440104">
 <ele>923</ele>
 <time>2020-03-24T14:23:50Z</time>
</trkpt>
<trkpt lat="35.114414" lon="136.440050">
 <ele>927</ele>
 <time>2020-03-24T14:23:50Z</time>
</trkpt>
<trkpt lat="35.114414" lon="136.439953">
 <ele>931</ele>
 <time>2020-03-24T14:23:51Z</time>
</trkpt>
<trkpt lat="35.114388" lon="136.439867">
 <ele>934</ele>
 <time>2020-03-24T14:23:51Z</time>
</trkpt>
<trkpt lat="35.114337" lon="136.439782">
 <ele>930</ele>
 <time>2020-03-24T14:23:51Z</time>
</trkpt>
<trkpt lat="35.114397" lon="136.439717">
 <ele>932</ele>
 <time>2020-03-24T14:23:51Z</time>
</trkpt>
<trkpt lat="35.114465" lon="136.439653">
 <ele>938</ele>
 <time>2020-03-24T14:23:51Z</time>
</trkpt>
<trkpt lat="35.114560" lon="136.439610">
 <ele>939</ele>
 <time>2020-03-24T14:23:51Z</time>
</trkpt>
<trkpt lat="35.114620" lon="136.439621">
 <ele>939</ele>
 <time>2020-03-24T14:23:51Z</time>
</trkpt>
<trkpt lat="35.114680" lon="136.439674">
 <ele>942</ele>
 <time>2020-03-24T14:23:52Z</time>
</trkpt>
<trkpt lat="35.114732" lon="136.439685">
 <ele>944</ele>
 <time>2020-03-24T14:23:52Z</time>
</trkpt>
<trkpt lat="35.114792" lon="136.439739">
 <ele>950</ele>
 <time>2020-03-24T14:23:52Z</time>
</trkpt>
<trkpt lat="35.114869" lon="136.439739">
 <ele>954</ele>
 <time>2020-03-24T14:23:52Z</time>
</trkpt>
<trkpt lat="35.114955" lon="136.439717">
 <ele>955</ele>
 <time>2020-03-24T14:23:52Z</time>
</trkpt>
<trkpt lat="35.115049" lon="136.439739">
 <ele>961</ele>
 <time>2020-03-24T14:23:52Z</time>
</trkpt>
<trkpt lat="35.115169" lon="136.439771">
 <ele>968</ele>
 <time>2020-03-24T14:23:53Z</time>
</trkpt>
<trkpt lat="35.115255" lon="136.439846">
 <ele>976</ele>
 <time>2020-03-24T14:23:53Z</time>
</trkpt>
<trkpt lat="35.115289" lon="136.439878">
 <ele>980</ele>
 <time>2020-03-24T14:23:53Z</time>
</trkpt>
<trkpt lat="35.115358" lon="136.439878">
 <ele>983</ele>
 <time>2020-03-24T14:23:53Z</time>
</trkpt>
<trkpt lat="35.115401" lon="136.439814">
 <ele>983</ele>
 <time>2020-03-24T14:23:53Z</time>
</trkpt>
<trkpt lat="35.115495" lon="136.439889">
 <ele>990</ele>
 <time>2020-03-24T14:23:53Z</time>
</trkpt>
<trkpt lat="35.115547" lon="136.439975">
 <ele>993</ele>
 <time>2020-03-24T14:23:53Z</time>
</trkpt>
<trkpt lat="35.115616" lon="136.439975">
 <ele>997</ele>
 <time>2020-03-24T14:23:54Z</time>
</trkpt>
<trkpt lat="35.115736" lon="136.439975">
 <ele>1005</ele>
 <time>2020-03-24T14:23:54Z</time>
</trkpt>
<trkpt lat="35.115847" lon="136.439921">
 <ele>1015</ele>
 <time>2020-03-24T14:23:54Z</time>
</trkpt>
<trkpt lat="35.115916" lon="136.439921">
 <ele>1020</ele>
 <time>2020-03-24T14:23:54Z</time>
</trkpt>
<trkpt lat="35.115959" lon="136.439921">
 <ele>1020</ele>
 <time>2020-03-24T14:23:54Z</time>
</trkpt>
<trkpt lat="35.116028" lon="136.439943">
 <ele>1025</ele>
 <time>2020-03-24T14:23:54Z</time>
</trkpt>
<trkpt lat="35.116105" lon="136.439953">
 <ele>1030</ele>
 <time>2020-03-24T14:23:55Z</time>
</trkpt>
<trkpt lat="35.116165" lon="136.439953">
 <ele>1034</ele>
 <time>2020-03-24T14:23:55Z</time>
</trkpt>
<trkpt lat="35.116208" lon="136.439985">
 <ele>1044</ele>
 <time>2020-03-24T14:23:55Z</time>
</trkpt>
<trkpt lat="35.116251" lon="136.440061">
 <ele>1044</ele>
 <time>2020-03-24T14:23:55Z</time>
</trkpt>
<trkpt lat="35.116285" lon="136.440071">
 <ele>1052</ele>
 <time>2020-03-24T14:23:55Z</time>
</trkpt>
<trkpt lat="35.116345" lon="136.440093">
 <ele>1057</ele>
 <time>2020-03-24T14:23:55Z</time>
</trkpt>
<trkpt lat="35.116405" lon="136.440125">
 <ele>1062</ele>
 <time>2020-03-24T14:23:56Z</time>
</trkpt>
<trkpt lat="35.116457" lon="136.440136">
 <ele>1062</ele>
 <time>2020-03-24T14:23:56Z</time>
</trkpt>
<trkpt lat="35.116543" lon="136.440189">
 <ele>1069</ele>
 <time>2020-03-24T14:23:56Z</time>
</trkpt>
<trkpt lat="35.116620" lon="136.440189">
 <ele>1071</ele>
 <time>2020-03-24T14:23:56Z</time>
</trkpt>
<trkpt lat="35.116731" lon="136.440286">
 <ele>1072</ele>
 <time>2020-03-24T14:23:56Z</time>
</trkpt>
<trkpt lat="35.116817" lon="136.440340">
 <ele>1073</ele>
 <time>2020-03-24T14:23:56Z</time>
</trkpt>
<trkpt lat="35.116869" lon="136.440415">
 <ele>1073</ele>
 <time>2020-03-24T14:23:56Z</time>
</trkpt>
<trkpt lat="35.116920" lon="136.440490">
 <ele>1075</ele>
 <time>2020-03-24T14:23:57Z</time>
</trkpt>
<trkpt lat="35.116920" lon="136.440554">
 <ele>1075</ele>
 <time>2020-03-24T14:23:57Z</time>
</trkpt>
<trkpt lat="35.116903" lon="136.440661">
 <ele>1074</ele>
 <time>2020-03-24T14:23:57Z</time>
</trkpt>
<trkpt lat="35.116929" lon="136.440737">
 <ele>1074</ele>
 <time>2020-03-24T14:23:57Z</time>
</trkpt>
<trkpt lat="35.116937" lon="136.440844">
 <ele>1074</ele>
 <time>2020-03-24T14:23:57Z</time>
</trkpt>
<trkpt lat="35.116980" lon="136.440940">
 <ele>1076</ele>
 <time>2020-03-24T14:23:57Z</time>
</trkpt>
<trkpt lat="35.117006" lon="136.441058">
 <ele>1076</ele>
 <time>2020-03-24T14:23:58Z</time>
</trkpt>
<trkpt lat="35.117083" lon="136.441133">
 <ele>1079</ele>
 <time>2020-03-24T14:23:58Z</time>
</trkpt>
<trkpt lat="35.117135" lon="136.441241">
 <ele>1081</ele>
 <time>2020-03-24T14:23:58Z</time>
</trkpt>
<trkpt lat="35.117161" lon="136.441327">
 <ele>1081</ele>
 <time>2020-03-24T14:23:58Z</time>
</trkpt>
<trkpt lat="35.117161" lon="136.441391">
 <ele>1081</ele>
 <time>2020-03-24T14:23:58Z</time>
</trkpt>
<trkpt lat="35.117178" lon="136.441477">
 <ele>1082</ele>
 <time>2020-03-24T14:23:58Z</time>
</trkpt>
<trkpt lat="35.117229" lon="136.441541">
 <ele>1083</ele>
 <time>2020-03-24T14:23:58Z</time>
</trkpt>
<trkpt lat="35.117281" lon="136.441541">
 <ele>1083</ele>
 <time>2020-03-24T14:23:59Z</time>
</trkpt>
<trkpt lat="35.117349" lon="136.441530">
 <ele>1083</ele>
 <time>2020-03-24T14:23:59Z</time>
</trkpt>
<trkpt lat="35.117418" lon="136.441541">
 <ele>1081</ele>
 <time>2020-03-24T14:23:59Z</time>
</trkpt>
<trkpt lat="35.117512" lon="136.441573">
 <ele>1079</ele>
 <time>2020-03-24T14:23:59Z</time>
</trkpt>
<trkpt lat="35.117581" lon="136.441584">
 <ele>1077</ele>
 <time>2020-03-24T14:23:59Z</time>
</trkpt>
<trkpt lat="35.117658" lon="136.441659">
 <ele>1077</ele>
 <time>2020-03-24T14:23:59Z</time>
</trkpt>
<trkpt lat="35.117701" lon="136.441756">
 <ele>1076</ele>
 <time>2020-03-24T14:24:00Z</time>
</trkpt>
<trkpt lat="35.117701" lon="136.441799">
 <ele>1078</ele>
 <time>2020-03-24T14:24:00Z</time>
</trkpt>
<trkpt lat="35.117727" lon="136.441906">
 <ele>1081</ele>
 <time>2020-03-24T14:24:00Z</time>
</trkpt>
<trkpt lat="35.117753" lon="136.441960">
 <ele>1080</ele>
 <time>2020-03-24T14:24:00Z</time>
</trkpt>
<trkpt lat="35.117787" lon="136.442045">
 <ele>1083</ele>
 <time>2020-03-24T14:24:00Z</time>
</trkpt>
<trkpt lat="35.117916" lon="136.442099">
 <ele>1079</ele>
 <time>2020-03-24T14:24:00Z</time>
</trkpt>
<trkpt lat="35.118002" lon="136.442153">
 <ele>1081</ele>
 <time>2020-03-24T14:24:01Z</time>
</trkpt>
<trkpt lat="35.118088" lon="136.442228">
 <ele>1081</ele>
 <time>2020-03-24T14:24:01Z</time>
</trkpt>
<trkpt lat="35.118139" lon="136.442324">
 <ele>1085</ele>
 <time>2020-03-24T14:24:01Z</time>
</trkpt>
<trkpt lat="35.118165" lon="136.442421">
 <ele>1087</ele>
 <time>2020-03-24T14:24:01Z</time>
</trkpt>
<trkpt lat="35.118122" lon="136.442496">
 <ele>1090</ele>
 <time>2020-03-24T14:24:01Z</time>
</trkpt>
<trkpt lat="35.118122" lon="136.442539">
 <ele>1090</ele>
 <time>2020-03-24T14:24:01Z</time>
</trkpt>
<trkpt lat="35.118165" lon="136.442625">
 <ele>1091</ele>
 <time>2020-03-24T14:24:01Z</time>
</trkpt>
<trkpt lat="35.118191" lon="136.442721">
 <ele>1092</ele>
 <time>2020-03-24T14:24:02Z</time>
</trkpt>
<trkpt lat="35.118233" lon="136.442818">
 <ele>1093</ele>
 <time>2020-03-24T14:24:02Z</time>
</trkpt>
<trkpt lat="35.118242" lon="136.442893">
 <ele>1093</ele>
 <time>2020-03-24T14:24:02Z</time>
</trkpt>
<trkpt lat="35.118276" lon="136.442979">
 <ele>1092</ele>
 <time>2020-03-24T14:24:02Z</time>
</trkpt>
<trkpt lat="35.118319" lon="136.443011">
 <ele>1092</ele>
 <time>2020-03-24T14:24:02Z</time>
</trkpt>
<trkpt lat="35.118336" lon="136.443075">
 <ele>1091</ele>
 <time>2020-03-24T14:24:02Z</time>
</trkpt>
<trkpt lat="35.118405" lon="136.443118">
 <ele>1092</ele>
 <time>2020-03-24T14:24:03Z</time>
</trkpt>
<trkpt lat="35.118465" lon="136.443140">
 <ele>1091</ele>
 <time>2020-03-24T14:24:03Z</time>
</trkpt>
<trkpt lat="35.118517" lon="136.443193">
 <ele>1090</ele>
 <time>2020-03-24T14:24:03Z</time>
</trkpt>
<trkpt lat="35.118585" lon="136.443354">
 <ele>1088</ele>
 <time>2020-03-24T14:24:03Z</time>
</trkpt>
<trkpt lat="35.118654" lon="136.443494">
 <ele>1090</ele>
 <time>2020-03-24T14:24:03Z</time>
</trkpt>
<trkpt lat="35.118697" lon="136.443580">
 <ele>1090</ele>
 <time>2020-03-24T14:24:03Z</time>
</trkpt>
<trkpt lat="35.118748" lon="136.443708">
 <ele>1091</ele>
 <time>2020-03-24T14:24:03Z</time>
</trkpt>
<trkpt lat="35.118783" lon="136.443783">
 <ele>1091</ele>
 <time>2020-03-24T14:24:04Z</time>
</trkpt>
<trkpt lat="35.118783" lon="136.443859">
 <ele>1091</ele>
 <time>2020-03-24T14:24:04Z</time>
</trkpt>
<trkpt lat="35.118800" lon="136.443977">
 <ele>1092</ele>
 <time>2020-03-24T14:24:04Z</time>
</trkpt>
<trkpt lat="35.118800" lon="136.444084">
 <ele>1092</ele>
 <time>2020-03-24T14:24:04Z</time>
</trkpt>
<trkpt lat="35.118783" lon="136.444180">
 <ele>1091</ele>
 <time>2020-03-24T14:24:04Z</time>
</trkpt>
<trkpt lat="35.118826" lon="136.444266">
 <ele>1092</ele>
 <time>2020-03-24T14:24:04Z</time>
</trkpt>
<trkpt lat="35.118826" lon="136.444331">
 <ele>1093</ele>
 <time>2020-03-24T14:24:05Z</time>
</trkpt>
<trkpt lat="35.118886" lon="136.444449">
 <ele>1094</ele>
 <time>2020-03-24T14:24:05Z</time>
</trkpt>
<trkpt lat="35.118997" lon="136.444577">
 <ele>1095</ele>
 <time>2020-03-24T14:24:05Z</time>
</trkpt>
<trkpt lat="35.119057" lon="136.444653">
 <ele>1096</ele>
 <time>2020-03-24T14:24:05Z</time>
</trkpt>
<trkpt lat="35.119109" lon="136.444728">
 <ele>1096</ele>
 <time>2020-03-24T14:24:05Z</time>
</trkpt>
<trkpt lat="35.119126" lon="136.444803">
 <ele>1096</ele>
 <time>2020-03-24T14:24:05Z</time>
</trkpt>
<trkpt lat="35.119195" lon="136.444878">
 <ele>1097</ele>
 <time>2020-03-24T14:24:05Z</time>
</trkpt>
<trkpt lat="35.119212" lon="136.444964">
 <ele>1098</ele>
 <time>2020-03-24T14:24:06Z</time>
</trkpt>
<trkpt lat="35.119220" lon="136.445028">
 <ele>1098</ele>
 <time>2020-03-24T14:24:06Z</time>
</trkpt>
<trkpt lat="35.119263" lon="136.445092">
 <ele>1098</ele>
 <time>2020-03-24T14:24:06Z</time>
</trkpt>
<trkpt lat="35.119325" lon="136.445172">
 <ele>1098</ele>
 <time>2020-03-24T14:24:06Z</time>
</trkpt>
<trkpt lat="35.119263" lon="136.445092">
 <ele>1098</ele>
 <time>2020-03-24T14:24:06Z</time>
</trkpt>
<trkpt lat="35.119220" lon="136.445028">
 <ele>1098</ele>
 <time>2020-03-24T14:24:06Z</time>
</trkpt>
<trkpt lat="35.119212" lon="136.444964">
 <ele>1098</ele>
 <time>2020-03-24T14:24:07Z</time>
</trkpt>
<trkpt lat="35.119195" lon="136.444878">
 <ele>1097</ele>
 <time>2020-03-24T14:24:07Z</time>
</trkpt>
<trkpt lat="35.119126" lon="136.444803">
 <ele>1096</ele>
 <time>2020-03-24T14:24:07Z</time>
</trkpt>
<trkpt lat="35.119109" lon="136.444728">
 <ele>1096</ele>
 <time>2020-03-24T14:24:07Z</time>
</trkpt>
<trkpt lat="35.119057" lon="136.444653">
 <ele>1096</ele>
 <time>2020-03-24T14:24:07Z</time>
</trkpt>
<trkpt lat="35.118997" lon="136.444577">
 <ele>1095</ele>
 <time>2020-03-24T14:24:07Z</time>
</trkpt>
<trkpt lat="35.118886" lon="136.444449">
 <ele>1094</ele>
 <time>2020-03-24T14:24:08Z</time>
</trkpt>
<trkpt lat="35.118826" lon="136.444331">
 <ele>1093</ele>
 <time>2020-03-24T14:24:08Z</time>
</trkpt>
<trkpt lat="35.118826" lon="136.444266">
 <ele>1092</ele>
 <time>2020-03-24T14:24:08Z</time>
</trkpt>
<trkpt lat="35.118783" lon="136.444180">
 <ele>1091</ele>
 <time>2020-03-24T14:24:08Z</time>
</trkpt>
<trkpt lat="35.118800" lon="136.444084">
 <ele>1092</ele>
 <time>2020-03-24T14:24:08Z</time>
</trkpt>
<trkpt lat="35.118800" lon="136.443977">
 <ele>1092</ele>
 <time>2020-03-24T14:24:08Z</time>
</trkpt>
<trkpt lat="35.118783" lon="136.443859">
 <ele>1091</ele>
 <time>2020-03-24T14:24:08Z</time>
</trkpt>
<trkpt lat="35.118783" lon="136.443783">
 <ele>1091</ele>
 <time>2020-03-24T14:24:09Z</time>
</trkpt>
<trkpt lat="35.118748" lon="136.443708">
 <ele>1091</ele>
 <time>2020-03-24T14:24:09Z</time>
</trkpt>
<trkpt lat="35.118697" lon="136.443580">
 <ele>1090</ele>
 <time>2020-03-24T14:24:09Z</time>
</trkpt>
<trkpt lat="35.118654" lon="136.443494">
 <ele>1090</ele>
 <time>2020-03-24T14:24:09Z</time>
</trkpt>
<trkpt lat="35.118585" lon="136.443354">
 <ele>1088</ele>
 <time>2020-03-24T14:24:09Z</time>
</trkpt>
<trkpt lat="35.118517" lon="136.443193">
 <ele>1090</ele>
 <time>2020-03-24T14:24:09Z</time>
</trkpt>
<trkpt lat="35.118465" lon="136.443140">
 <ele>1091</ele>
 <time>2020-03-24T14:24:10Z</time>
</trkpt>
<trkpt lat="35.118405" lon="136.443118">
 <ele>1092</ele>
 <time>2020-03-24T14:24:10Z</time>
</trkpt>
<trkpt lat="35.118336" lon="136.443075">
 <ele>1091</ele>
 <time>2020-03-24T14:24:10Z</time>
</trkpt>
<trkpt lat="35.118319" lon="136.443011">
 <ele>1092</ele>
 <time>2020-03-24T14:24:10Z</time>
</trkpt>
<trkpt lat="35.118276" lon="136.442979">
 <ele>1092</ele>
 <time>2020-03-24T14:24:10Z</time>
</trkpt>
<trkpt lat="35.118242" lon="136.442893">
 <ele>1093</ele>
 <time>2020-03-24T14:24:10Z</time>
</trkpt>
<trkpt lat="35.118233" lon="136.442818">
 <ele>1093</ele>
 <time>2020-03-24T14:24:10Z</time>
</trkpt>
<trkpt lat="35.118191" lon="136.442721">
 <ele>1092</ele>
 <time>2020-03-24T14:24:11Z</time>
</trkpt>
<trkpt lat="35.118165" lon="136.442625">
 <ele>1091</ele>
 <time>2020-03-24T14:24:11Z</time>
</trkpt>
<trkpt lat="35.118122" lon="136.442539">
 <ele>1090</ele>
 <time>2020-03-24T14:24:11Z</time>
</trkpt>
<trkpt lat="35.118122" lon="136.442496">
 <ele>1090</ele>
 <time>2020-03-24T14:24:11Z</time>
</trkpt>
<trkpt lat="35.118165" lon="136.442421">
 <ele>1087</ele>
 <time>2020-03-24T14:24:11Z</time>
</trkpt>
<trkpt lat="35.118139" lon="136.442324">
 <ele>1085</ele>
 <time>2020-03-24T14:24:11Z</time>
</trkpt>
<trkpt lat="35.118088" lon="136.442228">
 <ele>1081</ele>
 <time>2020-03-24T14:24:12Z</time>
</trkpt>
<trkpt lat="35.118002" lon="136.442153">
 <ele>1081</ele>
 <time>2020-03-24T14:24:12Z</time>
</trkpt>
<trkpt lat="35.117916" lon="136.442099">
 <ele>1079</ele>
 <time>2020-03-24T14:24:12Z</time>
</trkpt>
<trkpt lat="35.117787" lon="136.442045">
 <ele>1083</ele>
 <time>2020-03-24T14:24:12Z</time>
</trkpt>
<trkpt lat="35.117753" lon="136.441960">
 <ele>1080</ele>
 <time>2020-03-24T14:24:12Z</time>
</trkpt>
<trkpt lat="35.117727" lon="136.441906">
 <ele>1081</ele>
 <time>2020-03-24T14:24:12Z</time>
</trkpt>
<trkpt lat="35.117701" lon="136.441799">
 <ele>1078</ele>
 <time>2020-03-24T14:24:13Z</time>
</trkpt>
<trkpt lat="35.117701" lon="136.441756">
 <ele>1076</ele>
 <time>2020-03-24T14:24:13Z</time>
</trkpt>
<trkpt lat="35.117658" lon="136.441659">
 <ele>1077</ele>
 <time>2020-03-24T14:24:13Z</time>
</trkpt>
<trkpt lat="35.117581" lon="136.441584">
 <ele>1077</ele>
 <time>2020-03-24T14:24:13Z</time>
</trkpt>
<trkpt lat="35.117512" lon="136.441573">
 <ele>1079</ele>
 <time>2020-03-24T14:24:13Z</time>
</trkpt>
<trkpt lat="35.117418" lon="136.441541">
 <ele>1081</ele>
 <time>2020-03-24T14:24:13Z</time>
</trkpt>
<trkpt lat="35.117349" lon="136.441530">
 <ele>1083</ele>
 <time>2020-03-24T14:24:13Z</time>
</trkpt>
<trkpt lat="35.117281" lon="136.441541">
 <ele>1083</ele>
 <time>2020-03-24T14:24:14Z</time>
</trkpt>
<trkpt lat="35.117229" lon="136.441541">
 <ele>1083</ele>
 <time>2020-03-24T14:24:14Z</time>
</trkpt>
<trkpt lat="35.117178" lon="136.441477">
 <ele>1082</ele>
 <time>2020-03-24T14:24:14Z</time>
</trkpt>
<trkpt lat="35.117161" lon="136.441391">
 <ele>1081</ele>
 <time>2020-03-24T14:24:14Z</time>
</trkpt>
<trkpt lat="35.117161" lon="136.441327">
 <ele>1081</ele>
 <time>2020-03-24T14:24:14Z</time>
</trkpt>
<trkpt lat="35.117135" lon="136.441241">
 <ele>1081</ele>
 <time>2020-03-24T14:24:14Z</time>
</trkpt>
<trkpt lat="35.117083" lon="136.441133">
 <ele>1079</ele>
 <time>2020-03-24T14:24:15Z</time>
</trkpt>
<trkpt lat="35.117006" lon="136.441058">
 <ele>1076</ele>
 <time>2020-03-24T14:24:15Z</time>
</trkpt>
<trkpt lat="35.116980" lon="136.440940">
 <ele>1076</ele>
 <time>2020-03-24T14:24:15Z</time>
</trkpt>
<trkpt lat="35.116937" lon="136.440844">
 <ele>1074</ele>
 <time>2020-03-24T14:24:15Z</time>
</trkpt>
<trkpt lat="35.116929" lon="136.440737">
 <ele>1074</ele>
 <time>2020-03-24T14:24:15Z</time>
</trkpt>
<trkpt lat="35.116903" lon="136.440661">
 <ele>1074</ele>
 <time>2020-03-24T14:24:15Z</time>
</trkpt>
<trkpt lat="35.116920" lon="136.440554">
 <ele>1075</ele>
 <time>2020-03-24T14:24:16Z</time>
</trkpt>
<trkpt lat="35.116920" lon="136.440490">
 <ele>1075</ele>
 <time>2020-03-24T14:24:16Z</time>
</trkpt>
<trkpt lat="35.116869" lon="136.440415">
 <ele>1073</ele>
 <time>2020-03-24T14:24:16Z</time>
</trkpt>
<trkpt lat="35.116817" lon="136.440340">
 <ele>1073</ele>
 <time>2020-03-24T14:24:16Z</time>
</trkpt>
<trkpt lat="35.116731" lon="136.440286">
 <ele>1072</ele>
 <time>2020-03-24T14:24:16Z</time>
</trkpt>
<trkpt lat="35.116620" lon="136.440189">
 <ele>1071</ele>
 <time>2020-03-24T14:24:16Z</time>
</trkpt>
<trkpt lat="35.116543" lon="136.440189">
 <ele>1069</ele>
 <time>2020-03-24T14:24:17Z</time>
</trkpt>
<trkpt lat="35.116457" lon="136.440136">
 <ele>1062</ele>
 <time>2020-03-24T14:24:17Z</time>
</trkpt>
<trkpt lat="35.116405" lon="136.440125">
 <ele>1062</ele>
 <time>2020-03-24T14:24:17Z</time>
</trkpt>
<trkpt lat="35.116345" lon="136.440093">
 <ele>1057</ele>
 <time>2020-03-24T14:24:17Z</time>
</trkpt>
<trkpt lat="35.116285" lon="136.440071">
 <ele>1052</ele>
 <time>2020-03-24T14:24:17Z</time>
</trkpt>
<trkpt lat="35.116251" lon="136.440061">
 <ele>1044</ele>
 <time>2020-03-24T14:24:17Z</time>
</trkpt>
<trkpt lat="35.116208" lon="136.439985">
 <ele>1044</ele>
 <time>2020-03-24T14:24:17Z</time>
</trkpt>
<trkpt lat="35.116165" lon="136.439953">
 <ele>1034</ele>
 <time>2020-03-24T14:24:18Z</time>
</trkpt>
<trkpt lat="35.116105" lon="136.439953">
 <ele>1030</ele>
 <time>2020-03-24T14:24:18Z</time>
</trkpt>
<trkpt lat="35.116028" lon="136.439943">
 <ele>1025</ele>
 <time>2020-03-24T14:24:18Z</time>
</trkpt>
<trkpt lat="35.115959" lon="136.439921">
 <ele>1020</ele>
 <time>2020-03-24T14:24:18Z</time>
</trkpt>
<trkpt lat="35.115916" lon="136.439921">
 <ele>1020</ele>
 <time>2020-03-24T14:24:18Z</time>
</trkpt>
<trkpt lat="35.115847" lon="136.439921">
 <ele>1015</ele>
 <time>2020-03-24T14:24:18Z</time>
</trkpt>
<trkpt lat="35.115736" lon="136.439975">
 <ele>1005</ele>
 <time>2020-03-24T14:24:19Z</time>
</trkpt>
<trkpt lat="35.115616" lon="136.439975">
 <ele>997</ele>
 <time>2020-03-24T14:24:19Z</time>
</trkpt>
<trkpt lat="35.115547" lon="136.439975">
 <ele>993</ele>
 <time>2020-03-24T14:24:19Z</time>
</trkpt>
<trkpt lat="35.115495" lon="136.439889">
 <ele>990</ele>
 <time>2020-03-24T14:24:19Z</time>
</trkpt>
<trkpt lat="35.115401" lon="136.439814">
 <ele>983</ele>
 <time>2020-03-24T14:24:19Z</time>
</trkpt>
<trkpt lat="35.115358" lon="136.439878">
 <ele>983</ele>
 <time>2020-03-24T14:24:19Z</time>
</trkpt>
<trkpt lat="35.115289" lon="136.439878">
 <ele>980</ele>
 <time>2020-03-24T14:24:19Z</time>
</trkpt>
<trkpt lat="35.115255" lon="136.439846">
 <ele>976</ele>
 <time>2020-03-24T14:24:20Z</time>
</trkpt>
<trkpt lat="35.115169" lon="136.439771">
 <ele>968</ele>
 <time>2020-03-24T14:24:20Z</time>
</trkpt>
<trkpt lat="35.115049" lon="136.439739">
 <ele>961</ele>
 <time>2020-03-24T14:24:20Z</time>
</trkpt>
<trkpt lat="35.114955" lon="136.439717">
 <ele>955</ele>
 <time>2020-03-24T14:24:20Z</time>
</trkpt>
<trkpt lat="35.114869" lon="136.439739">
 <ele>954</ele>
 <time>2020-03-24T14:24:20Z</time>
</trkpt>
<trkpt lat="35.114792" lon="136.439739">
 <ele>950</ele>
 <time>2020-03-24T14:24:20Z</time>
</trkpt>
<trkpt lat="35.114732" lon="136.439685">
 <ele>944</ele>
 <time>2020-03-24T14:24:21Z</time>
</trkpt>
<trkpt lat="35.114680" lon="136.439674">
 <ele>942</ele>
 <time>2020-03-24T14:24:21Z</time>
</trkpt>
<trkpt lat="35.114620" lon="136.439621">
 <ele>939</ele>
 <time>2020-03-24T14:24:21Z</time>
</trkpt>
<trkpt lat="35.114560" lon="136.439610">
 <ele>939</ele>
 <time>2020-03-24T14:24:21Z</time>
</trkpt>
<trkpt lat="35.114465" lon="136.439653">
 <ele>938</ele>
 <time>2020-03-24T14:24:21Z</time>
</trkpt>
<trkpt lat="35.114397" lon="136.439717">
 <ele>932</ele>
 <time>2020-03-24T14:24:21Z</time>
</trkpt>
<trkpt lat="35.114337" lon="136.439782">
 <ele>930</ele>
 <time>2020-03-24T14:24:22Z</time>
</trkpt>
<trkpt lat="35.114388" lon="136.439867">
 <ele>934</ele>
 <time>2020-03-24T14:24:22Z</time>
</trkpt>
<trkpt lat="35.114414" lon="136.439953">
 <ele>931</ele>
 <time>2020-03-24T14:24:22Z</time>
</trkpt>
<trkpt lat="35.114414" lon="136.440050">
 <ele>927</ele>
 <time>2020-03-24T14:24:22Z</time>
</trkpt>
<trkpt lat="35.114397" lon="136.440104">
 <ele>923</ele>
 <time>2020-03-24T14:24:22Z</time>
</trkpt>
<trkpt lat="35.114397" lon="136.440189">
 <ele>920</ele>
 <time>2020-03-24T14:24:22Z</time>
</trkpt>
<trkpt lat="35.114405" lon="136.440286">
 <ele>918</ele>
 <time>2020-03-24T14:24:22Z</time>
</trkpt>
<trkpt lat="35.114440" lon="136.440425">
 <ele>922</ele>
 <time>2020-03-24T14:24:23Z</time>
</trkpt>
<trkpt lat="35.114465" lon="136.440522">
 <ele>922</ele>
 <time>2020-03-24T14:24:23Z</time>
</trkpt>
<trkpt lat="35.114465" lon="136.440618">
 <ele>921</ele>
 <time>2020-03-24T14:24:23Z</time>
</trkpt>
<trkpt lat="35.114388" lon="136.440683">
 <ele>916</ele>
 <time>2020-03-24T14:24:23Z</time>
</trkpt>
<trkpt lat="35.114277" lon="136.440737">
 <ele>907</ele>
 <time>2020-03-24T14:24:23Z</time>
</trkpt>
<trkpt lat="35.114174" lon="136.440822">
 <ele>900</ele>
 <time>2020-03-24T14:24:23Z</time>
</trkpt>
<trkpt lat="35.114096" lon="136.440908">
 <ele>895</ele>
 <time>2020-03-24T14:24:24Z</time>
</trkpt>
<trkpt lat="35.114011" lon="136.441015">
 <ele>889</ele>
 <time>2020-03-24T14:24:24Z</time>
</trkpt>
<trkpt lat="35.113899" lon="136.441037">
 <ele>884</ele>
 <time>2020-03-24T14:24:24Z</time>
</trkpt>
<trkpt lat="35.113822" lon="136.441080">
 <ele>879</ele>
 <time>2020-03-24T14:24:24Z</time>
</trkpt>
<trkpt lat="35.113702" lon="136.441155">
 <ele>875</ele>
 <time>2020-03-24T14:24:24Z</time>
</trkpt>
<trkpt lat="35.113633" lon="136.441262">
 <ele>874</ele>
 <time>2020-03-24T14:24:24Z</time>
</trkpt>
<trkpt lat="35.113573" lon="136.441273">
 <ele>872</ele>
 <time>2020-03-24T14:24:24Z</time>
</trkpt>
<trkpt lat="35.113478" lon="136.441305">
 <ele>870</ele>
 <time>2020-03-24T14:24:25Z</time>
</trkpt>
<trkpt lat="35.113393" lon="136.441337">
 <ele>864</ele>
 <time>2020-03-24T14:24:25Z</time>
</trkpt>
<trkpt lat="35.113272" lon="136.441391">
 <ele>857</ele>
 <time>2020-03-24T14:24:25Z</time>
</trkpt>
<trkpt lat="35.113178" lon="136.441423">
 <ele>853</ele>
 <time>2020-03-24T14:24:25Z</time>
</trkpt>
<trkpt lat="35.113058" lon="136.441402">
 <ele>845</ele>
 <time>2020-03-24T14:24:25Z</time>
</trkpt>
<trkpt lat="35.112963" lon="136.441327">
 <ele>840</ele>
 <time>2020-03-24T14:24:25Z</time>
</trkpt>
<trkpt lat="35.112826" lon="136.441241">
 <ele>834</ele>
 <time>2020-03-24T14:24:26Z</time>
</trkpt>
<trkpt lat="35.112706" lon="136.441284">
 <ele>831</ele>
 <time>2020-03-24T14:24:26Z</time>
</trkpt>
<trkpt lat="35.112629" lon="136.441284">
 <ele>829</ele>
 <time>2020-03-24T14:24:26Z</time>
</trkpt>
<trkpt lat="35.112534" lon="136.441251">
 <ele>824</ele>
 <time>2020-03-24T14:24:26Z</time>
</trkpt>
<trkpt lat="35.112440" lon="136.441251">
 <ele>823</ele>
 <time>2020-03-24T14:24:26Z</time>
</trkpt>
<trkpt lat="35.112354" lon="136.441241">
 <ele>823</ele>
 <time>2020-03-24T14:24:26Z</time>
</trkpt>
<trkpt lat="35.112260" lon="136.441219">
 <ele>822</ele>
 <time>2020-03-24T14:24:26Z</time>
</trkpt>
<trkpt lat="35.112157" lon="136.441230">
 <ele>818</ele>
 <time>2020-03-24T14:24:27Z</time>
</trkpt>
<trkpt lat="35.112079" lon="136.441262">
 <ele>817</ele>
 <time>2020-03-24T14:24:27Z</time>
</trkpt>
<trkpt lat="35.112011" lon="136.441316">
 <ele>820</ele>
 <time>2020-03-24T14:24:27Z</time>
</trkpt>
<trkpt lat="35.111976" lon="136.441412">
 <ele>821</ele>
 <time>2020-03-24T14:24:27Z</time>
</trkpt>
<trkpt lat="35.111933" lon="136.441445">
 <ele>821</ele>
 <time>2020-03-24T14:24:27Z</time>
</trkpt>
<trkpt lat="35.111856" lon="136.441445">
 <ele>820</ele>
 <time>2020-03-24T14:24:27Z</time>
</trkpt>
<trkpt lat="35.111805" lon="136.441402">
 <ele>818</ele>
 <time>2020-03-24T14:24:28Z</time>
</trkpt>
<trkpt lat="35.111745" lon="136.441380">
 <ele>817</ele>
 <time>2020-03-24T14:24:28Z</time>
</trkpt>
<trkpt lat="35.111685" lon="136.441337">
 <ele>815</ele>
 <time>2020-03-24T14:24:28Z</time>
</trkpt>
<trkpt lat="35.111633" lon="136.441380">
 <ele>816</ele>
 <time>2020-03-24T14:24:28Z</time>
</trkpt>
<trkpt lat="35.111590" lon="136.441423">
 <ele>815</ele>
 <time>2020-03-24T14:24:28Z</time>
</trkpt>
<trkpt lat="35.111530" lon="136.441466">
 <ele>813</ele>
 <time>2020-03-24T14:24:28Z</time>
</trkpt>
<trkpt lat="35.111479" lon="136.441552">
 <ele>810</ele>
 <time>2020-03-24T14:24:29Z</time>
</trkpt>
<trkpt lat="35.111479" lon="136.441648">
 <ele>810</ele>
 <time>2020-03-24T14:24:29Z</time>
</trkpt>
<trkpt lat="35.111453" lon="136.441745">
 <ele>810</ele>
 <time>2020-03-24T14:24:29Z</time>
</trkpt>
<trkpt lat="35.111427" lon="136.441831">
 <ele>810</ele>
 <time>2020-03-24T14:24:29Z</time>
</trkpt>
<trkpt lat="35.111384" lon="136.441874">
 <ele>808</ele>
 <time>2020-03-24T14:24:29Z</time>
</trkpt>
<trkpt lat="35.111281" lon="136.441906">
 <ele>804</ele>
 <time>2020-03-24T14:24:29Z</time>
</trkpt>
<trkpt lat="35.111221" lon="136.441949">
 <ele>800</ele>
 <time>2020-03-24T14:24:29Z</time>
</trkpt>
<trkpt lat="35.111161" lon="136.442045">
 <ele>799</ele>
 <time>2020-03-24T14:24:30Z</time>
</trkpt>
<trkpt lat="35.111049" lon="136.442078">
 <ele>793</ele>
 <time>2020-03-24T14:24:30Z</time>
</trkpt>
<trkpt lat="35.110998" lon="136.442131">
 <ele>796</ele>
 <time>2020-03-24T14:24:30Z</time>
</trkpt>
<trkpt lat="35.110938" lon="136.442206">
 <ele>793</ele>
 <time>2020-03-24T14:24:30Z</time>
</trkpt>
<trkpt lat="35.110826" lon="136.442249">
 <ele>791</ele>
 <time>2020-03-24T14:24:30Z</time>
</trkpt>
<trkpt lat="35.110758" lon="136.442357">
 <ele>792</ele>
 <time>2020-03-24T14:24:30Z</time>
</trkpt>
<trkpt lat="35.110655" lon="136.442399">
 <ele>792</ele>
 <time>2020-03-24T14:24:31Z</time>
</trkpt>
<trkpt lat="35.110534" lon="136.442432">
 <ele>789</ele>
 <time>2020-03-24T14:24:31Z</time>
</trkpt>
<trkpt lat="35.110423" lon="136.442464">
 <ele>787</ele>
 <time>2020-03-24T14:24:31Z</time>
</trkpt>
<trkpt lat="35.110354" lon="136.442464">
 <ele>785</ele>
 <time>2020-03-24T14:24:31Z</time>
</trkpt>
<trkpt lat="35.110268" lon="136.442442">
 <ele>783</ele>
 <time>2020-03-24T14:24:31Z</time>
</trkpt>
<trkpt lat="35.110217" lon="136.442367">
 <ele>782</ele>
 <time>2020-03-24T14:24:31Z</time>
</trkpt>
<trkpt lat="35.110183" lon="136.442292">
 <ele>780</ele>
 <time>2020-03-24T14:24:32Z</time>
</trkpt>
<trkpt lat="35.110131" lon="136.442185">
 <ele>775</ele>
 <time>2020-03-24T14:24:32Z</time>
</trkpt>
<trkpt lat="35.110054" lon="136.442099">
 <ele>771</ele>
 <time>2020-03-24T14:24:32Z</time>
</trkpt>
<trkpt lat="35.109985" lon="136.441992">
 <ele>766</ele>
 <time>2020-03-24T14:24:32Z</time>
</trkpt>
<trkpt lat="35.109891" lon="136.441895">
 <ele>761</ele>
 <time>2020-03-24T14:24:32Z</time>
</trkpt>
<trkpt lat="35.109813" lon="136.441917">
 <ele>758</ele>
 <time>2020-03-24T14:24:32Z</time>
</trkpt>
<trkpt lat="35.109728" lon="136.441927">
 <ele>745</ele>
 <time>2020-03-24T14:24:32Z</time>
</trkpt>
<trkpt lat="35.109685" lon="136.441970">
 <ele>747</ele>
 <time>2020-03-24T14:24:33Z</time>
</trkpt>
<trkpt lat="35.109625" lon="136.441970">
 <ele>743</ele>
 <time>2020-03-24T14:24:33Z</time>
</trkpt>
<trkpt lat="35.109616" lon="136.441895">
 <ele>742</ele>
 <time>2020-03-24T14:24:33Z</time>
</trkpt>
<trkpt lat="35.109573" lon="136.441863">
 <ele>735</ele>
 <time>2020-03-24T14:24:33Z</time>
</trkpt>
<trkpt lat="35.109513" lon="136.441809">
 <ele>734</ele>
 <time>2020-03-24T14:24:33Z</time>
</trkpt>
<trkpt lat="35.109427" lon="136.441756">
 <ele>731</ele>
 <time>2020-03-24T14:24:33Z</time>
</trkpt>
<trkpt lat="35.109333" lon="136.441734">
 <ele>730</ele>
 <time>2020-03-24T14:24:34Z</time>
</trkpt>
<trkpt lat="35.109213" lon="136.441627">
 <ele>721</ele>
 <time>2020-03-24T14:24:34Z</time>
</trkpt>
<trkpt lat="35.109092" lon="136.441573">
 <ele>719</ele>
 <time>2020-03-24T14:24:34Z</time>
</trkpt>
<trkpt lat="35.108998" lon="136.441595">
 <ele>719</ele>
 <time>2020-03-24T14:24:34Z</time>
</trkpt>
<trkpt lat="35.108844" lon="136.441563">
 <ele>716</ele>
 <time>2020-03-24T14:24:34Z</time>
</trkpt>
<trkpt lat="35.108775" lon="136.441466">
 <ele>711</ele>
 <time>2020-03-24T14:24:34Z</time>
</trkpt>
<trkpt lat="35.108663" lon="136.441380">
 <ele>702</ele>
 <time>2020-03-24T14:24:34Z</time>
</trkpt>
<trkpt lat="35.108595" lon="136.441348">
 <ele>697</ele>
 <time>2020-03-24T14:24:35Z</time>
</trkpt>
<trkpt lat="35.108509" lon="136.441284">
 <ele>694</ele>
 <time>2020-03-24T14:24:35Z</time>
</trkpt>
<trkpt lat="35.108457" lon="136.441209">
 <ele>688</ele>
 <time>2020-03-24T14:24:35Z</time>
</trkpt>
<trkpt lat="35.108406" lon="136.441209">
 <ele>688</ele>
 <time>2020-03-24T14:24:35Z</time>
</trkpt>
<trkpt lat="35.108329" lon="136.441284">
 <ele>687</ele>
 <time>2020-03-24T14:24:35Z</time>
</trkpt>
<trkpt lat="35.108286" lon="136.441348">
 <ele>685</ele>
 <time>2020-03-24T14:24:35Z</time>
</trkpt>
<trkpt lat="35.108260" lon="136.441391">
 <ele>686</ele>
 <time>2020-03-24T14:24:36Z</time>
</trkpt>
</trkseg>
</trk>
</gpx>

